sat.trackr.live / text

‹ back to catalog

STARLINK-3638

NORAD 51786 · 2022-017U

PAYLOAD ACTIVE UNKNOWN

§ Identity

Operator
Country
US
Launch date
2022-02-25
Launch site
AFWTR
Launch vehicle
Mass (kg)
RCS (m²)

Purposes: comms

External: N2YO · Heavens-Above · Gunter

§ Orbital elements

Epoch: 2026-09-19T07:31:21.369792Z

Period
93.85 min
Inclination
53.1593°
Eccentricity
0.0001385
Mean motion
15.34380394 rev/d
Perigee alt
461.8 km
Apogee alt
463.7 km
Semi-major
6,840.9 km
B*
4.3721e-5
RAAN
184.9158°
Arg perigee
85.1000°
Mean anomaly
275.0161°
Rev number
25,171

§ Raw data

STARLINK-36381 51786U 22017U   26262.31344178  .00001100  00000+0  43721-4 0  99902 51786  53.1593 184.9158 0001385  85.1000 275.0161 15.34380394251710

JSON: /api/v1/satellites/51786 · /tle

For live sub-satellite position, see the globe view (requires WebGL).

§ Visibility from observer

Set your observer location to see the next 7 days of passes ≥ 10°. The values pass through the URL so the page stays shareable.

No JS? Fill the form by hand. The geolocation button needs JavaScript.